Flag for Mexico Weather past 2 weeks in Mexicali, Baja California, Mexico

Now
114 °F

Passing clouds.


Feels Like: 113 °F
Forecast: 86 / 109 °F
Wind: 14 mph from Southeast

Location: Imperial County Airport

Current Time: Aug 29, 2015 at 5:45:27 PM

Latest Report: Aug 29, 2015 at 4:53 PM


Visibility: 10 mi

Pressure: 29.65 "Hg

Humidity: 14%

Dew point: 54 °F

Location of MexicaliLocation

Historic Weather in Mexicali — Graph

°F

Mexicali temperature yesterday

Maximum temperature yesterday: 112 °F (at 2:53 PM)
Minimum temperature yesterday: 87 °F (at 5:53 AM)
Average temperature yesterday: 100 °F

Past Weeks' High & Low Weather Summary

 TemperatureHumidityPressure
High117 °F (Aug 15, 2:53 PM)77% (Aug 21, 3:53 AM)29.91 "Hg (Aug 21, 3:53 AM)
Low80 °F (Aug 19, 5:53 AM)7% (Aug 18, 2:53 PM)29.61 "Hg (Aug 20, 5:53 PM)
Average97 °F34%29.75 "Hg
* Reported Aug 14 3:53 PM — Aug 29 3:53 PM, Mexicali, Weather by CustomWeather, © 2015

Note: Actual official high and low records may vary slightly from our data, if they occured in-between our weather recording intervals... More about our weather records

Advertising

Mexicali weather history for previous 24 hours

 ConditionsComfort  
Time TempWeatherWind HumidityBarometerVisibility
3:53 PM
Sat, Aug 29
115 °FPassing clouds.12 mph13%29.67 "Hg10 mi
2:53 PM112 °FPassing clouds.8 mph13%29.69 "Hg10 mi
1:53 PM112 °FPassing clouds.8 mph12%29.72 "Hg10 mi
12:53 PM112 °FSunny.6 mph12%29.74 "Hg10 mi
11:53 AM109 °FSunny.7 mph13%29.77 "Hg10 mi
10:53 AM107 °FSunny.6 mph14%29.78 "Hg10 mi
9:53 AM104 °FSunny.5 mph17%29.78 "Hg10 mi
8:53 AM100 °FSunny.6 mph21%29.77 "Hg10 mi
7:53 AM95 °FSunny.6 mph24%29.76 "Hg10 mi
6:53 AM88 °FClear.6 mph28%29.75 "Hg10 mi
5:53 AM87 °FClear.3 mph31%29.73 "Hg10 mi
4:53 AM87 °FClear.6 mph31%29.71 "Hg10 mi
3:53 AM89 °FClear.6 mph29%29.71 "Hg10 mi
2:53 AM88 °FClear.7 mph33%29.71 "Hg10 mi
1:53 AM90 °FClear.7 mph29%29.71 "Hg10 mi
11:53 PM
Fri, Aug 28
93 °FClear.7 mph27%29.72 "Hg10 mi
10:53 PM96 °FClear.7 mph24%29.72 "Hg10 mi
9:53 PM99 °FClear.13 mph21%29.71 "Hg10 mi
8:53 PM104 °FClear.8 mph19%29.70 "Hg10 mi
7:53 PM107 °FSunny.9 mph22%29.67 "Hg10 mi
6:53 PM110 °FSunny.6 mph18%29.67 "Hg10 mi
5:53 PM112 °FSunny.6 mph16%29.67 "Hg10 mi
Weather by CustomWeather, © 2015

See weather overviewHow to use our weather pages